Location: Rovigo
(45.0670°N, 11.7830°E)
Time: 14:44:21
(UTC+01:00)

ISS - Visible Passes

Search period start: 24 January 2019 00:00
Search period end: 03 February 2019 00:00
Orbit: 404 x 410 km, 51.6° (Epoch: 24 January)

Date Brightness Start Highest point End Pass type
(mag) Time Alt. Az. Time Alt. Az. Time Alt. Az.
24 Jan -2.1 17:46:55 10° S 17:49:28 21° SE 17:52:02 10° E visible
24 Jan -2.5 19:22:28 10° WSW 19:24:47 40° W 19:24:47 40° W visible
25 Jan -3.9 18:31:04 10° SW 18:34:22 80° SSE 18:35:41 34° ENE visible
25 Jan -0.3 20:08:12 10° WNW 20:08:24 11° WNW 20:08:24 11° WNW visible
26 Jan -3.2 17:39:52 10° SW 17:43:02 46° SE 17:46:14 10° ENE visible
26 Jan -2.5 19:16:32 10° W 19:19:13 36° NW 19:19:13 36° NW visible
27 Jan -3.3 18:24:55 10° WSW 18:28:09 52° NNW 18:30:00 22° NE visible
27 Jan -0.5 20:02:21 10° WNW 20:02:43 12° WNW 20:02:43 12° WNW visible
28 Jan -2.3 19:10:40 10° WNW 19:13:26 28° NNW 19:13:26 28° NNW visible
29 Jan -2.6 18:18:58 10° W 18:22:00 33° NNW 18:24:07 17° NE visible
29 Jan -0.7 19:56:19 10° NW 19:56:50 13° NW 19:56:50 13° NW visible
30 Jan -2.2 19:04:43 10° WNW 19:07:30 25° N 19:07:30 25° N visible
31 Jan -2.3 18:13:02 10° WNW 18:15:54 26° N 18:18:09 14° NE visible
31 Jan -1.0 19:50:03 10° NW 19:50:52 15° NW 19:50:52 15° NW visible
01 Feb -2.4 18:58:33 10° NW 19:01:25 26° N 19:01:32 26° N visible
02 Feb -2.3 18:06:57 10° WNW 18:09:45 25° N 18:12:12 12° NE visible
02 Feb -1.4 19:43:37 10° NW 19:44:55 21° NW 19:44:55 21° NW visible
